STARLINK-11590, 63112

Orbit data source: Space-Track

STARLINK-11590, 63112 is a payload satellite owned by SpaceX/Seattle (US) in LEO that was launched on Thu, 27 Feb 2025 UTC via an FALCON 9 launch vehicle from the Air Force Eastern Test Range (AFETR). Payload-class satellites include a variety of spacecraft equipped with specific instruments for various scientific and technological missions. These include communications satellites like Starlink; space stations such as the ISS; scientific satellites like the Hubble; Earth observation satellites from companies like Planet Labs, Umbra, and HawkEye 360; GPS; miniature CubeSats for education and research; and military/defense satellites.

Loading next visibility...
Identifier
63112, 2025-039J
Orbit
LEO
Last TLE update
19 hours ago
Origin
Manufacturer
SpaceX/Seattle
Mission
Operational Commercial Communications
Bus & Motor
STARLINK V2M, Unknown motor
Mass
730 kg wet, ~700 kg dry
Launch date (UTC)
2025-02-27 (2 months ago)
Launch vehicle
FALCON 9
Launch site
Air Force Eastern Test Range (AFETR)
Object type
Payload
Rocket body
Debris
Shape & HBR
Box + 2 Pan, 29 m
Radar Cross Section
36.964 m², Large (>1 m²)

Expand to show TLE details & history

TLE from 19 hours ago
0 STARLINK-11590
1 63112U 25039J   25128.45099691  .00008935  00000-0  54252-4 0  9990
2 63112  43.0010 278.1261 0001374 233.0124 127.0620 15.77816652 11592
Epoch: 2025-05-08T10:49Z
Definitive object data (Epoch: 2025-05-08T10:49:26.133Z)
Latitude
-0.00004°
Longitude
-110.75414°
Altitude
336.955 km
Speed
7.708 km/s
True Right ascension
18h 32m 30s
True Declination
0° 00' 00"
Sunlit
Object was in full shadow at TLE epoch
Visualization TLE readout
Latitude
-37.93429°
Longitude
-171.91379°
Altitude
347.252 km
Speed
7.701 km/s
Apparent Right ascension
14h 37m 38s
Apparent Declination
-87° 06' 52"
Sunlit
Object is in full shadow
Visualization observer readout
Local Sidereal Time
14:27:02
Azimuth
179.833° S
Elevation
-37.034°
Doppler factor
1
Orbital elements
Apogee altitude
339.538 km
Perigee altitude
337.692 km
Semi-major axis
6,716.752 km
Eccentricity
0.0001374
Inclination
43.001°
RAAN
278.1261°
Arg. of periapsis
233.0124°
True anomaly
127.07456°
Mean anomaly
127.062°
Eccentric anomaly
127.06828°
Mean motion
3.94279 °/min
BSTAR
0.000054252
Orbital period
91.31 mins
Loading maneuver chart data...
Loading SW <> Apogee altitude chart data...
Loading historical data...
Loading historical data...
Loading historical data...
Loading historical data...
Loading historical data...
Loading historical data...
Loading historical data...

STARLINK-11590 Visibility forecast

Observer location: undefined°, undefined°

Span
Click to sort rows by Start time (UTC) header in descending order
Start Az.
Max El. time (UTC)
Max El. Az.
Max El.
End time (UTC)
End Az.
4 mins2025-05-09 12:51:13.786Z202.882° SW2025-05-09 12:53:13.786Z153.992° SSE21.648°2025-05-09 12:55:13.786Z99.132° ESE
4 mins2025-05-09 14:27:13.786Z264.751° W2025-05-09 14:29:13.786Z37.692° NE40.154°2025-05-09 14:31:13.786Z68.396° E
4 mins2025-05-09 16:03:13.786Z301.03° NW2025-05-09 16:04:13.786Z331.836° NNW31.277°2025-05-09 16:07:13.786Z74.615° E
4 mins2025-05-09 17:39:13.786Z286.266° WNW2025-05-09 17:40:13.786Z276.8° WNW42.989°2025-05-09 17:43:13.786Z111.046° ESE
|